Location: Newark
(41.8922°N, 9.0050°E)
Time: 00:21:58
(UTC+00:00)

Envisat - Pass Details

Date: 24 January 2020
Orbit: 764 x 766 km, 98.1° (Epoch: 27 February)

Event Time Altitude Azimuth Distance (km) Brightness Sun altitude
Rises 18:03:43 0° 194° (SSW) 3,218 6.6 -17.7°
Reaches altitude 10° 18:06:18 10° 205° (SSW) 2,297 5.9 -18.2°
Maximum altitude 18:10:40 29° 265° (W) 1,382 5.1 -19.0°
Drops below altitude 10° 18:15:04 10° 325° (NW) 2,311 5.8 -19.8°
Sets 18:17:41 0° 336° (NNW) 3,242 6.4 -20.3°
